Hauptseite
METAR-TAF:

METAR-TAF

Flughäfen :

Épinal, Frankreich

Flughafen Epinal-Mirecourt

Breite: 48-19-31N, Länge: 6-04-00E, Höhe: 330 m

Beobachtung

Neuester Wetterbericht von vor 14 Minuten, um 04:00 UTC
Wind 4 kt aus Nord
Temperatur 3°C
Luftfeuchtigkeit 93%
Luftdruck 1009 hPa
Sichtweite: 8000 m
Durchbrochene Bewölkung in der Höhe von 1400 ft
Geschlossene Wolkendecke in der Höhe von 5600 ft
Leichtregen

METAR: LFSG 260400Z AUTO 01004KT 8000 -RA BKN014 OVC056 03/02 Q1009

Zeit: 06:14 (04:14 UTC)


TAF: fehlend

Wetterbeobachtungen und Prognosen von mehr als 4000 Flughäfen (METAR und TAF Bericht).

Die verfügbaren Stationen werden durch gelbe und rote Markierungen auf der Karte dargestellt.

Führen Sie die Maus auf sie, um den Namen der Station zu sehen.

Darauf klicken, um die Beobachtung von Wetterbeobachtungen und Prognosen zu sehen.

Um die Karte zu ändern : klicken Sie auf den grünen Tasten mit einem schwarzen Kreuz Zum Vergrößern, auf den grünen Button mit einem Gedankenstrich zu verkleinern, oder auf die grünen Pfeile für benachbarte Karten.


METAR-TAF: